{"data":{"norad_id":60993,"intl_designator":"2024-158D","name":"STARLINK-11283 [DTC]","alt_names":[],"object_type":"PAYLOAD","status":"ACTIVE","operator":null,"country":"US","launch_date":"2024-09-05","launch_site_code":"AFETR","launch_vehicle":null,"mission":null,"orbit_class":"UNKNOWN","rcs_meters":null,"size_class":null,"mass_kg":null,"dimensions":null,"purposes":["comms"],"wikipedia_slug":null,"has_3d_model":false,"image_url":null,"decayed_at":null,"tle_current":{"epoch":"2026-05-25T01:17:19.570272Z","epoch_age_seconds":77223,"freshness":"FRESH","line1":"1 60993U 24158D   26145.05369873 -.00000448  00000+0  11663-5 0  9994","line2":"2 60993  53.1579 265.1698 0001287  85.8040 274.3124 15.69710966 99583","mean_motion":15.69710966,"eccentricity":0.0001287,"inclination_deg":53.1579,"raan_deg":265.1698,"arg_perigee_deg":85.804,"mean_anomaly_deg":274.3124,"bstar":1.1663e-6,"rev_number":9958,"period_min":91.736633761913,"perigee_km":358.85682339005,"apogee_km":360.59114880787,"semimajor_km":6737.860986099,"source":"CELESTRAK","updated_at":"2026-05-25T13:38:19.322570Z"}}}